Regional Weather Roundup
Issued by NWS Sterling, VA

Home | Current Version | Previous Version | Graphics & Text | Print | Product List | Glossary On
Versions: 1 2 3 4 5 6 7 8 9 10 11 12 13 14 15 16 17 18 19 20 21 22 23 24 25 26 27
000
ASUS41 KLWX 221810
RWRLWX

REGIONAL WEATHER ROUNDUP
NATIONAL WEATHER SERVICE BALTIMORE MD/WASHINGTON DC
200 PM EDT WED OCT 22 2014

Note: "FAIR" indicates few or no clouds below 12,000 feet
with no significant weather and/or obstructions to visibility.
 TC=TEMPERATURE CELSIUS

 * =Non NWS site. Station does not report precipitation (e.g. rain,
    snow, etc.), thunder, or fog.

DCZ001-MDZ009-015-VAZ040>042-051-053>054-221900-
WASHINGTON METRO

CITY           SKY/WX    TMP DP  RH WIND       PRES   REMARKS
WASHINGTON NAT LGT RAIN  56  50  80 N20G26    29.93F
DULLES         RAIN      51  49  92 NW15G24   29.96S FOG
ANDREWS AFB    LGT RAIN  54  52  94 NW18G24   29.90F
FT BELVOIR     LGT RAIN  54  50  87 NW15G22   29.94S
QUANTICO       LGT RAIN  55  50  83 N20G29    29.94F
COLLEGE PARK*  CLOUDY    54  52  94 NW10G20   29.92S
LEESBURG*      RAIN      54  52  94 N12       29.98S
GAITHERSBURG*  CLOUDY    52  48  87 NW3       29.98S

$$

MDZ006>007-011-014-221900-
BALTIMORE METRO

CITY           SKY/WX    TMP DP  RH WIND       PRES   REMARKS
BWI AIRPORT    RAIN      54  51  90 NW10      29.91S
MD SCIENCE CTR   N/A     55  51  86 MISG      29.91F
MARTIN STATE   LGT RAIN  55  55 100 NW17      29.91F
ANNAPOLIS      LGT RAIN  56  53  90 NW16      29.88F FOG
FORT MEADE*    PTSUNNY   52  50  93 NW8       29.93F

$$

MDZ012-015-019>023-221900-
MARYLAND EASTERN SHORE

CITY           SKY/WX    TMP DP  RH WIND       PRES   REMARKS
OCEAN CITY     RAIN      57  55  93 N12G22    29.74F VSB 1/2
SALISBURY      CLOUDY    61  53  75 N16G25    29.78F
BAY BRIDGE AP* LGT RAIN  54  54 100 N17G28    29.87S
CAMBRIDGE*     CLOUDY    55  52  88 N14G20    29.82F VSB<1/4
EASTON*        LGT RAIN  57  57 100 N12G18    29.87F

$$

MDZ017>025-221900-
SOUTHERN MARYLAND

CITY           SKY/WX    TMP DP  RH WIND       PRES   REMARKS
PATUXENT RIVER LGT RAIN  55  52  89 NW24      29.84F FOG
ST INIGOES     LGT RAIN  54  50  86 NW12G17   29.84S
LEONARDTOWN*   CLOUDY    54  50  87 NW8G20    29.87F

$$

MDZ003>005-221900-
NORTH CENTRAL MARYLAND

CITY           SKY/WX    TMP DP  RH WIND       PRES   REMARKS
FREDERICK*     NOT AVBL
HAGERSTOWN APT CLOUDY    54  46  74 N15G23    29.99F
WESTMINSTER*   LGT RAIN  52  48  87 N9G16     29.95S

$$

MDZ501>502-221900-
WESTERN MARYLAND

CITY           SKY/WX    TMP DP  RH WIND       PRES   REMARKS
OAKLAND*       FOG       39 N/A N/A NW8       30.09S VSB<1/4
CUMBERLAND*    CLOUDY    54  45  71 NW14      30.10S

$$

VAZ025>031-221900-
SHENANDOAH VALLEY

CITY           SKY/WX    TMP DP  RH WIND       PRES   REMARKS
WINCHESTER*    RAIN      54  43  66 NW10G16   30.01S
FRONT ROYAL*   CLOUDY    52  46  82 N8G21     30.00S
LURAY*         CLOUDY    55  46  71 N12G22    30.01S
NEW MARKET*    CLOUDY    54  44  69 N7        30.02F
STAUNTON*      CLOUDY    60  42  52 N16G22    30.02F
WAYNESBORO*    MOCLDY    59  42  52 N16G22    29.99F

$$

WVZ021-048>050-054>055-221900-
EASTERN WEST VIRGINIA PANHANDLE

CITY           SKY/WX    TMP DP  RH WIND       PRES   REMARKS
MARTINSBURG    LGT RAIN  53  45  74 NW15G23   30.01S
PETERSBURG*    CLOUDY    52  41  65 NW14G20   30.08R

$$

VAZ036>039-050-221900-
CENTRAL FOOTHILLS

CITY           SKY/WX    TMP DP  RH WIND       PRES   REMARKS
CHARLOTTESVILL CLOUDY    59  44  57 N14G25    29.98F
CULPEPER*      LGT RAIN  55  48  76 NW8G22    29.98S
ORANGE*        DRIZZLE   57  46  67 NW13G18   29.98S
GORDONSVILLE*  CLOUDY    57  45  63 CALM      29.96F
WARRENTON*     DRIZZLE   55  53  93 NW18G24   29.96S

$$

VAZ055>057-221900-
NORTH AND CENTRAL PIEDMONT

CITY           SKY/WX    TMP DP  RH WIND       PRES   REMARKS
FREDERICKSBRG* LGT RAIN  57  53  86 NW9G20    29.93S
STAFFORD*      LGT RAIN  54  54 100 NW14      29.98S

$$

NCZ024-NYZ072-PAZ021-071-VAZ022-071-221900-
OTHER REGIONAL OBSERVATIONS

CITY           SKY/WX    TMP DP  RH WIND       PRES   REMARKS
NEW YORK CITY  CLOUDY    57  50  77 NE12G21   29.89F
PHILADELPHIA   LGT RAIN  55  51  86 N16G22    29.86F
PITTSBURGH     CLOUDY    49  42  77 N14       30.16F
ROANOKE        CLOUDY    56  39  53 NW15G26   30.07S
RICHMOND       LGT RAIN  56  51  84 NW14      29.91F
RALEIGH        MOSUNNY   65  43  44 NW9       29.98F

$$

ANZ530>537-221900-
MARINE OBSERVATIONS

STATION/POSITION TIME  TEMP    WIND        PRES
                       AIR SEA DIR/SP/G
                 (UTC) (F)     (DEG/KT/KT) (MB)
THOMAS PT LIGHT  1800   56 64  340/ 22/ 25 1011.9F
BALT KEY BRIDGE  1800   56     340/ 13/ 16 1012.2R
COVE POINT       1800   55     350/ 29/ 32 1010.1F
LEWISETTA        1800   56 63  340/ 17/ 23 1010.3F
SOLOMONS ISLAND  1800      65                N/A
PINEY POINT      1800          350/ 25/ 26   N/A

$$




USA.gov is the U.S. government's official web portal to all federal, state and local government web resources and services.